Terminal Aerodrome Forecast
Issued by NWS

Home | Current Version | Previous Version | Text Only | Print | Product List | Glossary On
Versions: 1 2 3 4 5 6 7 8 9 10 11 12 13 14 15 16 17 18 19 20 21 22
000
FTUS46 KSTO 271400 AAA
TAFMHR
TAF AMD
KMHR 271458Z 2715/2812 VRB04KT 6SM BR OVC120
     FM271700 17008KT P6SM VCSH SCT040 OVC080
     FM280200 VRB04KT P6SM BKN100
     FM280700 33004KT 4SM BR BKN150=

USA.gov is the U.S. government's official web portal to all federal, state and local government web resources and services.